Year,Month,Day,Hour,Minute,Value (Times are PST for temperature in C)
2016,06,26,00,00,17.10
2016,06,26,00,01,17.10
2016,06,26,00,02,17.10
2016,06,26,00,03,17.10
2016,06,26,00,05,17.10
2016,06,26,00,06,17.10
2016,06,26,00,07,17.10
2016,06,26,00,08,17.10
2016,06,26,00,10,17.10
2016,06,26,00,11,17.10
2016,06,26,00,12,17.10
2016,06,26,00,13,17.10
2016,06,26,00,15,17.10
2016,06,26,00,16,17.10
2016,06,26,00,17,17.10
2016,06,26,00,18,17.20
2016,06,26,00,19,17.20
2016,06,26,00,20,17.20
2016,06,26,00,21,17.20
2016,06,26,00,22,17.20
2016,06,26,00,23,17.20
2016,06,26,00,24,17.20
2016,06,26,00,25,17.30
2016,06,26,00,26,17.30
2016,06,26,00,27,17.30
2016,06,26,00,28,17.30
2016,06,26,00,29,17.30
2016,06,26,00,30,17.30
2016,06,26,00,31,17.40
2016,06,26,00,32,17.40
2016,06,26,00,34,17.40
2016,06,26,00,35,17.40
2016,06,26,00,36,17.40
2016,06,26,00,37,17.40
2016,06,26,00,39,17.40
2016,06,26,00,40,17.40
2016,06,26,00,41,17.40
2016,06,26,00,42,17.40
2016,06,26,00,44,17.40
2016,06,26,00,45,17.40
2016,06,26,00,46,17.40
2016,06,26,00,47,17.40
2016,06,26,00,49,17.40
2016,06,26,00,50,17.50
2016,06,26,00,51,17.50
2016,06,26,00,52,17.50
2016,06,26,00,53,17.50
2016,06,26,00,54,17.50
2016,06,26,00,56,17.50
2016,06,26,00,57,17.50
2016,06,26,00,58,17.40
2016,06,26,00,59,17.50
2016,06,26,01,01,17.40
2016,06,26,01,02,17.50
2016,06,26,01,03,17.40
2016,06,26,01,04,17.40
2016,06,26,01,05,17.40
2016,06,26,01,06,17.40
2016,06,26,01,07,17.40
2016,06,26,01,08,17.50
2016,06,26,01,09,17.50
2016,06,26,01,11,17.50
2016,06,26,01,12,17.50
2016,06,26,01,13,17.50
2016,06,26,01,14,17.60
2016,06,26,01,16,17.60
2016,06,26,01,17,17.60
2016,06,26,01,18,17.60
2016,06,26,01,19,17.60
2016,06,26,01,20,17.60
2016,06,26,01,21,17.60
2016,06,26,01,22,17.60
2016,06,26,01,23,17.60
2016,06,26,01,24,17.60
2016,06,26,01,25,17.60
2016,06,26,01,26,17.60
2016,06,26,01,27,17.60
2016,06,26,01,28,17.60
2016,06,26,01,30,17.60
2016,06,26,01,31,17.60
2016,06,26,01,32,17.60
2016,06,26,01,33,17.60
2016,06,26,01,34,17.60
2016,06,26,01,35,17.60
2016,06,26,01,36,17.60
2016,06,26,01,37,17.60
2016,06,26,01,38,17.60
2016,06,26,01,39,17.50
2016,06,26,01,40,17.50
2016,06,26,01,42,17.50
2016,06,26,01,43,17.50
2016,06,26,01,44,17.50
2016,06,26,01,45,17.50
2016,06,26,01,47,17.50
2016,06,26,01,48,17.40
2016,06,26,01,49,17.40
2016,06,26,01,50,17.40
2016,06,26,01,51,17.40
2016,06,26,01,52,17.40
2016,06,26,01,53,17.40
2016,06,26,01,54,17.40
2016,06,26,01,55,17.40
2016,06,26,01,56,17.40
2016,06,26,01,57,17.40
2016,06,26,01,58,17.40
2016,06,26,01,59,17.40
2016,06,26,02,00,17.40
2016,06,26,02,01,17.50
2016,06,26,02,02,17.40
2016,06,26,02,03,17.40
2016,06,26,02,04,17.40
2016,06,26,02,05,17.40
2016,06,26,02,06,17.40
2016,06,26,02,07,17.40
2016,06,26,02,08,17.40
2016,06,26,02,09,17.40
2016,06,26,02,10,17.40
2016,06,26,02,11,17.30
2016,06,26,02,12,17.30
2016,06,26,02,13,17.30
2016,06,26,02,14,17.30
2016,06,26,02,15,17.20
2016,06,26,02,16,17.20
2016,06,26,02,17,17.20
2016,06,26,02,18,17.10
2016,06,26,02,19,17.10
2016,06,26,02,20,17.10
2016,06,26,02,21,17.10
2016,06,26,02,22,17.10
2016,06,26,02,23,17.10
2016,06,26,02,24,16.90
2016,06,26,02,26,16.90
2016,06,26,02,27,16.90
2016,06,26,02,28,16.90
2016,06,26,02,29,16.90
2016,06,26,02,30,16.80
2016,06,26,02,31,16.80
2016,06,26,02,32,16.80
2016,06,26,02,33,16.70
2016,06,26,02,34,16.70
2016,06,26,02,35,16.70
2016,06,26,02,36,16.70
2016,06,26,02,37,16.60
2016,06,26,02,38,16.60
2016,06,26,02,39,16.60
2016,06,26,02,40,16.60
2016,06,26,02,41,16.50
2016,06,26,02,42,16.50
2016,06,26,02,43,16.50
2016,06,26,02,44,16.40
2016,06,26,02,45,16.40
2016,06,26,02,46,16.40
2016,06,26,02,47,16.30
2016,06,26,02,48,16.30
2016,06,26,02,49,16.30
2016,06,26,02,50,16.30
2016,06,26,02,51,16.30
2016,06,26,02,52,16.30
2016,06,26,02,53,16.30
2016,06,26,02,54,16.30
2016,06,26,02,55,16.30
2016,06,26,02,56,16.30
2016,06,26,02,57,16.30
2016,06,26,02,58,16.30
2016,06,26,02,59,16.30
2016,06,26,03,00,16.30
2016,06,26,03,01,16.30
2016,06,26,03,02,16.30
2016,06,26,03,03,16.30
2016,06,26,03,04,16.30
2016,06,26,03,05,16.30
2016,06,26,03,06,16.30
2016,06,26,03,07,16.30
2016,06,26,03,08,16.30
2016,06,26,03,09,16.30
2016,06,26,03,10,16.30
2016,06,26,03,11,16.30
2016,06,26,03,12,16.30
2016,06,26,03,13,16.30
2016,06,26,03,14,16.30
2016,06,26,03,15,16.30
2016,06,26,03,16,16.30
2016,06,26,03,17,16.30
2016,06,26,03,18,16.30
2016,06,26,03,19,16.30
2016,06,26,03,20,16.30
2016,06,26,03,21,16.30
2016,06,26,03,22,16.30
2016,06,26,03,23,16.30
2016,06,26,03,24,16.30
2016,06,26,03,25,16.30
2016,06,26,03,26,16.30
2016,06,26,03,27,16.30
2016,06,26,03,28,16.20
2016,06,26,03,29,16.20
2016,06,26,03,30,16.20
2016,06,26,03,31,16.20
2016,06,26,03,32,16.20
2016,06,26,03,33,16.20
2016,06,26,03,34,16.10
2016,06,26,03,35,16.10
2016,06,26,03,36,16.10
2016,06,26,03,37,16.10
2016,06,26,03,38,16.00
2016,06,26,03,39,16.00
2016,06,26,03,40,16.00
2016,06,26,03,41,16.00
2016,06,26,03,42,16.00
2016,06,26,03,43,15.90
2016,06,26,03,44,15.90
2016,06,26,03,45,15.90
2016,06,26,03,46,15.90
2016,06,26,03,47,15.80
2016,06,26,03,48,15.80
2016,06,26,03,49,15.80
2016,06,26,03,50,15.80
2016,06,26,03,51,15.80
2016,06,26,03,52,15.70
2016,06,26,03,53,15.70
2016,06,26,03,54,15.70
2016,06,26,03,55,15.70
2016,06,26,03,56,15.70
2016,06,26,03,57,15.70
2016,06,26,03,58,15.70
2016,06,26,03,59,15.70
2016,06,26,04,00,15.70
2016,06,26,04,01,15.70
2016,06,26,04,02,15.70
2016,06,26,04,03,15.70
2016,06,26,04,04,15.70
2016,06,26,04,05,15.70
2016,06,26,04,06,15.70
2016,06,26,04,08,15.70
2016,06,26,04,10,15.70
2016,06,26,04,11,15.70
2016,06,26,04,12,15.70
2016,06,26,04,13,15.70
2016,06,26,04,15,15.70
2016,06,26,04,17,15.70
2016,06,26,04,18,15.70
2016,06,26,04,20,15.70
2016,06,26,04,22,15.70
2016,06,26,04,23,15.70
2016,06,26,04,25,15.70
2016,06,26,04,27,15.70
2016,06,26,04,28,15.70
2016,06,26,04,29,15.70
2016,06,26,04,30,15.70
2016,06,26,04,32,15.70
2016,06,26,04,33,15.80
2016,06,26,04,34,15.80
2016,06,26,04,35,15.80
2016,06,26,04,36,15.80
2016,06,26,04,37,15.80
2016,06,26,04,39,15.80
2016,06,26,04,40,15.80
2016,06,26,04,41,15.80
2016,06,26,04,42,15.80
2016,06,26,04,43,15.80
2016,06,26,04,44,15.80
2016,06,26,04,46,15.80
2016,06,26,04,47,15.70
2016,06,26,04,48,15.70
2016,06,26,04,49,15.70
2016,06,26,04,51,15.70
2016,06,26,04,52,15.70
2016,06,26,04,53,15.70
2016,06,26,04,54,15.70
2016,06,26,04,55,15.60
2016,06,26,04,56,15.60
2016,06,26,04,58,15.60
2016,06,26,05,00,15.50
2016,06,26,05,01,15.40
2016,06,26,05,02,15.40
2016,06,26,05,03,15.40
2016,06,26,05,05,15.30
2016,06,26,05,06,15.20
2016,06,26,05,07,15.20
2016,06,26,05,08,15.20
2016,06,26,05,10,15.20
2016,06,26,05,11,15.10
2016,06,26,05,12,15.10
2016,06,26,05,13,15.00
2016,06,26,05,15,15.00
2016,06,26,05,16,15.00
2016,06,26,05,17,15.00
2016,06,26,05,18,15.00
2016,06,26,05,20,14.90
2016,06,26,05,21,14.90
2016,06,26,05,22,14.90
2016,06,26,05,23,14.90
2016,06,26,05,25,14.90
2016,06,26,05,26,14.90
2016,06,26,05,27,14.90
2016,06,26,05,28,14.90
2016,06,26,05,29,14.90
2016,06,26,05,30,14.80
2016,06,26,05,32,14.80
2016,06,26,05,33,14.80
2016,06,26,05,34,14.70
2016,06,26,05,35,14.70
2016,06,26,05,37,14.70
2016,06,26,05,38,14.70
2016,06,26,05,39,14.70
2016,06,26,05,40,14.70
2016,06,26,05,41,14.70
2016,06,26,05,42,14.80
2016,06,26,05,44,14.80
2016,06,26,05,45,14.80
2016,06,26,05,46,14.80
2016,06,26,05,47,14.80
2016,06,26,05,49,14.90
2016,06,26,05,50,14.90
2016,06,26,05,51,14.90
2016,06,26,05,52,15.00
2016,06,26,05,54,15.10
2016,06,26,05,55,15.10
2016,06,26,05,56,15.10
2016,06,26,05,57,15.20
2016,06,26,05,59,15.20
2016,06,26,06,00,15.20
2016,06,26,06,01,15.20
2016,06,26,06,02,15.20
2016,06,26,06,04,15.20
2016,06,26,06,05,15.20
2016,06,26,06,06,15.30
2016,06,26,06,07,15.30
2016,06,26,06,09,15.30
2016,06,26,06,10,15.30
2016,06,26,06,11,15.30
2016,06,26,06,12,15.30
2016,06,26,06,13,15.30
2016,06,26,06,14,15.30
2016,06,26,06,16,15.30
2016,06,26,06,17,15.30
2016,06,26,06,18,15.30
2016,06,26,06,19,15.30
2016,06,26,06,20,15.30
2016,06,26,06,21,15.40
2016,06,26,06,23,15.40
2016,06,26,06,24,15.40
2016,06,26,06,25,15.40
2016,06,26,06,26,15.50
2016,06,26,06,27,15.50
2016,06,26,06,28,15.50
2016,06,26,06,29,15.50
2016,06,26,06,30,15.50
2016,06,26,06,31,15.60
2016,06,26,06,32,15.60
2016,06,26,06,33,15.60
2016,06,26,06,35,15.60
2016,06,26,06,36,15.60
2016,06,26,06,37,15.60
2016,06,26,06,38,15.60
2016,06,26,06,39,15.60
2016,06,26,06,40,15.60
2016,06,26,06,41,15.60
2016,06,26,06,42,15.60
2016,06,26,06,43,15.60
2016,06,26,06,44,15.70
2016,06,26,06,45,15.70
2016,06,26,06,46,15.70
2016,06,26,06,47,15.70
2016,06,26,06,48,15.70
2016,06,26,06,49,15.70
2016,06,26,06,50,15.70
2016,06,26,06,51,15.70
2016,06,26,06,52,15.70
2016,06,26,06,53,15.70
2016,06,26,06,55,15.70
2016,06,26,06,56,15.70
2016,06,26,06,58,15.70
2016,06,26,06,59,15.70
2016,06,26,07,01,15.70
2016,06,26,07,02,15.70
2016,06,26,07,04,15.70
2016,06,26,07,05,15.70
2016,06,26,07,06,15.70
2016,06,26,07,07,15.70
2016,06,26,07,09,15.70
2016,06,26,07,10,15.70
2016,06,26,07,12,15.70
2016,06,26,07,13,15.70
2016,06,26,07,14,15.70
2016,06,26,07,15,15.70
2016,06,26,07,16,15.70
2016,06,26,07,17,15.80
2016,06,26,07,18,15.80
2016,06,26,07,19,15.80
2016,06,26,07,20,15.90
2016,06,26,07,21,15.90
2016,06,26,07,22,15.90
2016,06,26,07,23,15.90
2016,06,26,07,24,15.90
2016,06,26,07,25,15.90
2016,06,26,07,26,15.90
2016,06,26,07,27,16.00
2016,06,26,07,28,16.00
2016,06,26,07,29,16.00
2016,06,26,07,30,16.00
2016,06,26,07,31,16.00
2016,06,26,07,32,16.00
2016,06,26,07,33,16.00
2016,06,26,07,34,16.00
2016,06,26,07,35,16.00
2016,06,26,07,36,16.00
2016,06,26,07,37,16.00
2016,06,26,07,38,16.00
2016,06,26,07,39,16.00
2016,06,26,07,40,16.00
2016,06,26,07,41,16.00
2016,06,26,07,43,16.00
2016,06,26,07,44,16.00
2016,06,26,07,45,16.10
2016,06,26,07,46,16.10
2016,06,26,07,47,16.10
2016,06,26,07,48,16.10
2016,06,26,07,49,16.10
2016,06,26,07,50,16.10
2016,06,26,07,51,16.10
2016,06,26,07,52,16.10
2016,06,26,07,53,16.10
2016,06,26,07,54,16.10
2016,06,26,07,55,16.20
2016,06,26,07,56,16.20
2016,06,26,07,57,16.20
2016,06,26,07,58,16.20
2016,06,26,07,59,16.20
2016,06,26,08,00,16.20
2016,06,26,08,01,16.20
2016,06,26,08,02,16.30
2016,06,26,08,03,16.30
2016,06,26,08,04,16.30
2016,06,26,08,05,16.30
2016,06,26,08,06,16.30
2016,06,26,08,07,16.30
2016,06,26,08,08,16.30
2016,06,26,08,09,16.30
2016,06,26,08,10,16.30
2016,06,26,08,11,16.30
2016,06,26,08,12,16.40
2016,06,26,08,13,16.40
2016,06,26,08,14,16.40
2016,06,26,08,15,16.40
2016,06,26,08,16,16.40
2016,06,26,08,17,16.40
2016,06,26,08,18,16.40
2016,06,26,08,19,16.40
2016,06,26,08,20,16.50
2016,06,26,08,21,16.50
2016,06,26,08,22,16.50
2016,06,26,08,23,16.50
2016,06,26,08,24,16.40
2016,06,26,08,25,16.40
2016,06,26,08,26,16.40
2016,06,26,08,27,16.40
2016,06,26,08,28,16.40
2016,06,26,08,29,16.40
2016,06,26,08,30,16.40
2016,06,26,08,31,16.40
2016,06,26,08,32,16.40
2016,06,26,08,33,16.40
2016,06,26,08,34,16.40
2016,06,26,08,35,16.40
2016,06,26,08,36,16.40
2016,06,26,08,37,16.40
2016,06,26,08,38,16.50
2016,06,26,08,39,16.50
2016,06,26,08,40,16.40
2016,06,26,08,41,16.40
2016,06,26,08,42,16.40
2016,06,26,08,43,16.40
2016,06,26,08,44,16.40
2016,06,26,08,45,16.50
2016,06,26,08,46,16.50
2016,06,26,08,47,16.50
2016,06,26,08,48,16.50
2016,06,26,08,49,16.50
2016,06,26,08,50,16.60
2016,06,26,08,51,16.70
2016,06,26,08,52,16.70
2016,06,26,08,53,16.80
2016,06,26,08,54,16.80
2016,06,26,08,55,16.90
2016,06,26,08,56,16.90
2016,06,26,08,57,16.90
2016,06,26,08,58,16.90
2016,06,26,08,59,16.90
2016,06,26,09,00,16.90
2016,06,26,09,01,16.90
2016,06,26,09,02,16.90
2016,06,26,09,03,16.90
2016,06,26,09,04,17.10
2016,06,26,09,05,17.10
2016,06,26,09,06,17.10
2016,06,26,09,07,17.10
2016,06,26,09,08,17.10
2016,06,26,09,09,17.10
2016,06,26,09,10,17.10
2016,06,26,09,11,17.20
2016,06,26,09,12,17.20
2016,06,26,09,13,17.20
2016,06,26,09,14,17.20
2016,06,26,09,15,17.30
2016,06,26,09,16,17.30
2016,06,26,09,17,17.40
2016,06,26,09,18,17.40
2016,06,26,09,19,17.40
2016,06,26,09,20,17.40
2016,06,26,09,21,17.50
2016,06,26,09,22,17.50
2016,06,26,09,23,17.50
2016,06,26,09,24,17.60
2016,06,26,09,25,17.60
2016,06,26,09,26,17.60
2016,06,26,09,27,17.70
2016,06,26,09,28,17.70
2016,06,26,09,29,17.80
2016,06,26,09,30,17.80
2016,06,26,09,31,17.80
2016,06,26,09,32,17.80
2016,06,26,09,33,17.80
2016,06,26,09,34,17.80
2016,06,26,09,35,17.80
2016,06,26,09,36,17.80
2016,06,26,09,37,17.80
2016,06,26,09,38,17.80
2016,06,26,09,39,17.80
2016,06,26,09,40,17.80
2016,06,26,09,41,17.80
2016,06,26,09,42,17.80
2016,06,26,09,43,17.90
2016,06,26,09,44,17.90
2016,06,26,09,45,17.90
2016,06,26,09,46,17.90
2016,06,26,09,47,17.90
2016,06,26,09,48,18.00
2016,06,26,09,49,18.00
2016,06,26,09,50,18.00
2016,06,26,09,51,18.00
2016,06,26,09,52,18.10
2016,06,26,09,54,18.10
2016,06,26,09,55,18.10
2016,06,26,09,56,18.10
2016,06,26,09,57,18.10
2016,06,26,09,59,18.20
2016,06,26,10,00,18.20
2016,06,26,10,01,18.30
2016,06,26,10,02,18.30
2016,06,26,10,03,18.30
2016,06,26,10,04,18.40
2016,06,26,10,06,18.40
2016,06,26,10,07,18.40
2016,06,26,10,08,18.50
2016,06,26,10,09,18.50
2016,06,26,10,11,18.50
2016,06,26,10,12,18.50
2016,06,26,10,13,18.50
2016,06,26,10,14,18.60
2016,06,26,10,16,18.60
2016,06,26,10,17,18.50
2016,06,26,10,18,18.50
2016,06,26,10,19,18.40
2016,06,26,10,20,18.40
2016,06,26,10,21,18.40
2016,06,26,10,23,18.30
2016,06,26,10,24,18.30
2016,06,26,10,25,18.30
2016,06,26,10,26,18.30
2016,06,26,10,28,18.30
2016,06,26,10,30,18.20
2016,06,26,10,31,18.20
2016,06,26,10,32,18.30
2016,06,26,10,33,18.30
2016,06,26,10,35,18.20
2016,06,26,10,36,18.30
2016,06,26,10,37,18.40
2016,06,26,10,38,18.40
2016,06,26,10,40,18.50
2016,06,26,10,42,18.50
2016,06,26,10,43,18.50
2016,06,26,10,44,18.40
2016,06,26,10,45,18.40
2016,06,26,10,47,18.50
2016,06,26,10,48,18.50
2016,06,26,10,49,18.50
2016,06,26,10,50,18.60
2016,06,26,10,52,18.60
2016,06,26,10,53,18.60
2016,06,26,10,54,18.70
2016,06,26,10,55,18.70
2016,06,26,10,57,18.70
2016,06,26,10,58,18.70
2016,06,26,10,59,18.70
2016,06,26,11,00,18.70
2016,06,26,11,02,18.60
2016,06,26,11,03,18.60
2016,06,26,11,04,18.70
2016,06,26,11,05,18.70
2016,06,26,11,06,18.70
2016,06,26,11,07,18.70
2016,06,26,11,09,18.70
2016,06,26,11,10,18.70
2016,06,26,11,11,18.70
2016,06,26,11,12,18.80
2016,06,26,11,13,18.80
2016,06,26,11,14,18.80
2016,06,26,11,16,18.90
2016,06,26,11,17,18.90
2016,06,26,11,18,19.00
2016,06,26,11,19,19.10
2016,06,26,11,21,19.20
2016,06,26,11,22,19.30
2016,06,26,11,23,19.40
2016,06,26,11,24,19.60
2016,06,26,11,25,19.70
2016,06,26,11,26,19.70
2016,06,26,11,28,19.80
2016,06,26,11,29,19.80
2016,06,26,11,30,19.80
2016,06,26,11,31,19.90
2016,06,26,11,33,19.80
2016,06,26,11,34,19.80
2016,06,26,11,35,19.80
2016,06,26,11,36,19.80
2016,06,26,11,38,19.80
2016,06,26,11,39,19.70
2016,06,26,11,40,19.70
2016,06,26,11,41,19.70
2016,06,26,11,42,19.70
2016,06,26,11,43,19.70
2016,06,26,11,44,19.60
2016,06,26,11,45,19.60
2016,06,26,11,46,19.60
2016,06,26,11,47,19.60
2016,06,26,11,48,19.60
2016,06,26,11,49,19.60
2016,06,26,11,50,19.60
2016,06,26,11,51,19.70
2016,06,26,11,52,19.70
2016,06,26,11,53,19.70
2016,06,26,11,54,19.70
2016,06,26,11,55,19.70
2016,06,26,11,57,19.70
2016,06,26,11,58,19.70
2016,06,26,11,59,19.70
2016,06,26,12,00,19.80
2016,06,26,12,02,19.90
2016,06,26,12,03,19.90
2016,06,26,12,04,20.00
2016,06,26,12,05,20.00
2016,06,26,12,07,20.00
2016,06,26,12,08,20.00
2016,06,26,12,09,20.00
2016,06,26,12,10,19.90
2016,06,26,12,12,19.90
2016,06,26,12,13,19.90
2016,06,26,12,14,20.00
2016,06,26,12,15,20.00
2016,06,26,12,17,20.10
2016,06,26,12,18,20.10
2016,06,26,12,19,20.10
2016,06,26,12,20,20.10
2016,06,26,12,21,20.10
2016,06,26,12,22,20.20
2016,06,26,12,24,20.30
2016,06,26,12,25,20.30
2016,06,26,12,26,20.40
2016,06,26,12,27,20.40
2016,06,26,12,28,20.50
2016,06,26,12,29,20.60
2016,06,26,12,31,20.70
2016,06,26,12,32,20.70
2016,06,26,12,33,20.70
2016,06,26,12,34,20.70
2016,06,26,12,36,20.60
2016,06,26,12,37,20.60
2016,06,26,12,38,20.60
2016,06,26,12,39,20.60
2016,06,26,12,40,20.60
2016,06,26,12,41,20.60
2016,06,26,12,43,20.60
2016,06,26,12,44,20.60
2016,06,26,12,45,20.60
2016,06,26,12,46,20.60
2016,06,26,12,47,20.50
2016,06,26,12,48,20.50
2016,06,26,12,49,20.50
2016,06,26,12,50,20.50
2016,06,26,12,51,20.50
2016,06,26,12,52,20.50
2016,06,26,12,53,20.50
2016,06,26,12,54,20.50
2016,06,26,12,55,20.40
2016,06,26,12,56,20.40
2016,06,26,12,57,20.40
2016,06,26,12,58,20.50
2016,06,26,12,59,20.50
2016,06,26,13,00,20.50
2016,06,26,13,01,20.50
2016,06,26,13,02,20.60
2016,06,26,13,03,20.70
2016,06,26,13,04,20.80
2016,06,26,13,05,20.80
2016,06,26,13,06,20.80
2016,06,26,13,07,20.80
2016,06,26,13,08,20.80
2016,06,26,13,09,20.90
2016,06,26,13,10,20.90
2016,06,26,13,11,20.90
2016,06,26,13,12,21.10
2016,06,26,13,13,21.10
2016,06,26,13,14,21.10
2016,06,26,13,15,21.20
2016,06,26,13,17,21.30
2016,06,26,13,18,21.30
2016,06,26,13,19,21.40
2016,06,26,13,20,21.50
2016,06,26,13,22,21.60
2016,06,26,13,23,21.60
2016,06,26,13,24,21.70
2016,06,26,13,25,21.70
2016,06,26,13,26,21.70
2016,06,26,13,27,21.60
2016,06,26,13,28,21.60
2016,06,26,13,29,21.40
2016,06,26,13,30,21.30
2016,06,26,13,31,21.20
2016,06,26,13,32,21.10
2016,06,26,13,33,21.10
2016,06,26,13,34,20.90
2016,06,26,13,35,20.80
2016,06,26,13,36,20.80
2016,06,26,13,37,20.80
2016,06,26,13,38,20.80
2016,06,26,13,39,20.80
2016,06,26,13,40,20.80
2016,06,26,13,41,20.70
2016,06,26,13,42,20.70
2016,06,26,13,43,20.80
2016,06,26,13,44,20.70
2016,06,26,13,45,20.70
2016,06,26,13,46,20.70
2016,06,26,13,47,20.70
2016,06,26,13,48,20.60
2016,06,26,13,49,20.60
2016,06,26,13,50,20.60
2016,06,26,13,51,20.60
2016,06,26,13,52,20.70
2016,06,26,13,53,20.70
2016,06,26,13,54,20.70
2016,06,26,13,55,20.70
2016,06,26,13,56,20.80
2016,06,26,13,57,20.80
2016,06,26,13,58,20.80
2016,06,26,13,59,20.80
2016,06,26,14,00,20.80
2016,06,26,14,01,20.80
2016,06,26,14,02,20.80
2016,06,26,14,03,20.80
2016,06,26,14,04,20.80
2016,06,26,14,05,20.90
2016,06,26,14,06,20.90
2016,06,26,14,07,20.90
2016,06,26,14,08,21.10
2016,06,26,14,09,21.10
2016,06,26,14,10,21.10
2016,06,26,14,11,21.20
2016,06,26,14,12,21.20
2016,06,26,14,13,21.30
2016,06,26,14,14,21.30
2016,06,26,14,15,21.40
2016,06,26,14,16,21.40
2016,06,26,14,17,21.50
2016,06,26,14,18,21.50
2016,06,26,14,19,21.50
2016,06,26,14,20,21.50
2016,06,26,14,21,21.50
2016,06,26,14,22,21.50
2016,06,26,14,23,21.40
2016,06,26,14,24,21.40
2016,06,26,14,25,21.40
2016,06,26,14,26,21.40
2016,06,26,14,27,21.40
2016,06,26,14,28,21.30
2016,06,26,14,29,21.30
2016,06,26,14,30,21.30
2016,06,26,14,31,21.30
2016,06,26,14,32,21.20
2016,06,26,14,33,21.20
2016,06,26,14,34,21.20
2016,06,26,14,35,21.20
2016,06,26,14,36,21.20
2016,06,26,14,37,21.30
2016,06,26,14,38,21.30
2016,06,26,14,39,21.30
2016,06,26,14,40,21.30
2016,06,26,14,41,21.30
2016,06,26,14,42,21.40
2016,06,26,14,43,21.40
2016,06,26,14,44,21.40
2016,06,26,14,45,21.50
2016,06,26,14,46,21.40
2016,06,26,14,47,21.40
2016,06,26,14,48,21.40
2016,06,26,14,49,21.40
2016,06,26,14,50,21.40
2016,06,26,14,51,21.50
2016,06,26,14,52,21.50
2016,06,26,14,53,21.50
2016,06,26,14,54,21.50
2016,06,26,14,55,21.40
2016,06,26,14,56,21.40
2016,06,26,14,57,21.30
2016,06,26,14,58,21.30
2016,06,26,14,59,21.30
2016,06,26,15,00,21.30
2016,06,26,15,01,21.40
2016,06,26,15,02,21.40
2016,06,26,15,03,21.40
2016,06,26,15,04,21.40
2016,06,26,15,05,21.40
2016,06,26,15,06,21.50
2016,06,26,15,07,21.50
2016,06,26,15,08,21.50
2016,06,26,15,09,21.50
2016,06,26,15,10,21.50
2016,06,26,15,11,21.60
2016,06,26,15,12,21.60
2016,06,26,15,13,21.60
2016,06,26,15,14,21.70
2016,06,26,15,15,21.70
2016,06,26,15,16,21.70
2016,06,26,15,17,21.70
2016,06,26,15,18,21.70
2016,06,26,15,19,21.70
2016,06,26,15,20,21.70
2016,06,26,15,21,21.70
2016,06,26,15,22,21.70
2016,06,26,15,23,21.60
2016,06,26,15,24,21.60
2016,06,26,15,25,21.60
2016,06,26,15,26,21.50
2016,06,26,15,27,21.50
2016,06,26,15,28,21.50
2016,06,26,15,29,21.50
2016,06,26,15,30,21.50
2016,06,26,15,31,21.50
2016,06,26,15,32,21.50
2016,06,26,15,33,21.60
2016,06,26,15,34,21.60
2016,06,26,15,35,21.60
2016,06,26,15,36,21.60
2016,06,26,15,37,21.70
2016,06,26,15,38,21.70
2016,06,26,15,39,21.80
2016,06,26,15,40,21.80
2016,06,26,15,41,21.90
2016,06,26,15,42,21.90
2016,06,26,15,43,21.90
2016,06,26,15,44,21.90
2016,06,26,15,45,21.90
2016,06,26,15,46,22.00
2016,06,26,15,47,22.00
2016,06,26,15,48,22.00
2016,06,26,15,49,22.00
2016,06,26,15,50,22.00
2016,06,26,15,51,22.00
2016,06,26,15,52,22.00
2016,06,26,15,53,22.10
2016,06,26,15,54,22.10
2016,06,26,15,55,22.10
2016,06,26,15,56,22.20
2016,06,26,15,57,22.20
2016,06,26,15,58,22.20
2016,06,26,15,59,22.30
2016,06,26,16,00,22.30
2016,06,26,16,01,22.40
2016,06,26,16,02,22.60
2016,06,26,16,04,22.70
2016,06,26,16,05,22.70
2016,06,26,16,07,22.70
2016,06,26,16,08,22.80
2016,06,26,16,09,22.90
2016,06,26,16,10,22.90
2016,06,26,16,12,23.10
2016,06,26,16,13,23.10
2016,06,26,16,14,23.10
2016,06,26,16,15,23.20
2016,06,26,16,16,23.30
2016,06,26,16,17,23.30
2016,06,26,16,19,23.30
2016,06,26,16,20,23.40
2016,06,26,16,21,23.40
2016,06,26,16,22,23.40
2016,06,26,16,23,23.50
2016,06,26,16,24,23.50
2016,06,26,16,26,23.60
2016,06,26,16,27,23.60
2016,06,26,16,28,23.60
2016,06,26,16,29,23.60
2016,06,26,16,31,23.60
2016,06,26,16,32,23.60
2016,06,26,16,33,23.60
2016,06,26,16,34,23.60
2016,06,26,16,35,23.60
2016,06,26,16,36,23.50
2016,06,26,16,38,23.50
2016,06,26,16,39,23.40
2016,06,26,16,40,23.40
2016,06,26,16,41,23.40
2016,06,26,16,43,23.40
2016,06,26,16,44,23.40
2016,06,26,16,45,23.40
2016,06,26,16,46,23.40
2016,06,26,16,47,23.40
2016,06,26,16,48,23.50
2016,06,26,16,50,23.40
2016,06,26,16,51,23.40
2016,06,26,16,52,23.40
2016,06,26,16,53,23.40
2016,06,26,16,55,23.30
2016,06,26,16,56,23.30
2016,06,26,16,57,23.20
2016,06,26,16,58,23.20
2016,06,26,17,00,23.20
2016,06,26,17,01,23.20
2016,06,26,17,02,23.20
2016,06,26,17,03,23.20
2016,06,26,17,04,23.30
2016,06,26,17,05,23.30
2016,06,26,17,07,23.40
2016,06,26,17,08,23.40
2016,06,26,17,09,23.50
2016,06,26,17,10,23.50
2016,06,26,17,12,23.60
2016,06,26,17,13,23.70
2016,06,26,17,14,23.70
2016,06,26,17,15,23.70
2016,06,26,17,16,23.70
2016,06,26,17,17,23.80
2016,06,26,17,19,23.80
2016,06,26,17,20,23.90
2016,06,26,17,21,23.90
2016,06,26,17,22,23.90
2016,06,26,17,24,23.90
2016,06,26,17,25,24.00
2016,06,26,17,26,24.00
2016,06,26,17,27,24.00
2016,06,26,17,28,24.00
2016,06,26,17,29,24.00
2016,06,26,17,31,24.00
2016,06,26,17,32,23.90
2016,06,26,17,33,23.90
2016,06,26,17,34,23.90
2016,06,26,17,36,23.80
2016,06,26,17,37,23.80
2016,06,26,17,38,23.80
2016,06,26,17,39,23.80
2016,06,26,17,40,23.80
2016,06,26,17,41,23.80
2016,06,26,17,43,23.80
2016,06,26,17,44,23.80
2016,06,26,17,45,23.90
2016,06,26,17,46,23.80
2016,06,26,17,47,23.80
2016,06,26,17,48,23.80
2016,06,26,17,49,23.80
2016,06,26,17,50,23.70
2016,06,26,17,51,23.60
2016,06,26,17,52,23.60
2016,06,26,17,53,23.50
2016,06,26,17,55,23.50
2016,06,26,17,56,23.50
2016,06,26,17,57,23.50
2016,06,26,17,58,23.40
2016,06,26,18,00,23.40
2016,06,26,18,01,23.30
2016,06,26,18,02,23.30
2016,06,26,18,03,23.30
2016,06,26,18,05,23.20
2016,06,26,18,06,23.10
2016,06,26,18,07,23.10
2016,06,26,18,08,23.10
2016,06,26,18,10,23.10
2016,06,26,18,11,23.10
2016,06,26,18,12,23.20
2016,06,26,18,13,23.20
2016,06,26,18,14,23.20
2016,06,26,18,15,23.20
2016,06,26,18,17,23.20
2016,06,26,18,18,23.20
2016,06,26,18,19,23.10
2016,06,26,18,20,23.10
2016,06,26,18,22,23.10
2016,06,26,18,23,23.00
2016,06,26,18,24,23.00
2016,06,26,18,25,22.90
2016,06,26,18,26,22.90
2016,06,26,18,27,22.80
2016,06,26,18,28,22.80
2016,06,26,18,29,22.70
2016,06,26,18,30,22.70
2016,06,26,18,31,22.70
2016,06,26,18,32,22.70
2016,06,26,18,33,22.70
2016,06,26,18,34,22.70
2016,06,26,18,35,22.70
2016,06,26,18,36,22.70
2016,06,26,18,37,22.70
2016,06,26,18,38,22.70
2016,06,26,18,39,22.70
2016,06,26,18,40,22.70
2016,06,26,18,41,22.70
2016,06,26,18,42,22.70
2016,06,26,18,43,22.70
2016,06,26,18,44,22.70
2016,06,26,18,45,22.70
2016,06,26,18,46,22.70
2016,06,26,18,47,22.70
2016,06,26,18,48,22.70
2016,06,26,18,49,22.70
2016,06,26,18,50,22.70
2016,06,26,18,51,22.70
2016,06,26,18,52,22.70
2016,06,26,18,53,22.70
2016,06,26,18,54,22.70
2016,06,26,18,55,22.70
2016,06,26,18,56,22.70
2016,06,26,18,57,22.70
2016,06,26,18,58,22.70
2016,06,26,18,59,22.60
2016,06,26,19,00,22.60
2016,06,26,19,01,22.60
2016,06,26,19,02,22.60
2016,06,26,19,03,22.60
2016,06,26,19,04,22.40
2016,06,26,19,05,22.40
2016,06,26,19,06,22.40
2016,06,26,19,07,22.30